| time (UTC) | temp F | wind direction | speed MPH | gust MPH | rain 1hr in | rain 24hr in | rain mn in | humidity % | barometer mb |
| 20260905071534 | 77 | 115 | 0.0 | 0.0 | 0.00 | 0.01 | 0.00 | 71 | 1013.0 |
| 20260905070058 | 78 | 115 | 0.0 | 0.0 | 0.00 | 0.01 | 0.00 | 71 | 1013.1 |
| 20260905064514 | 78 | 115 | 0.0 | 0.0 | 0.00 | 0.01 | 0.00 | 72 | 1013.3 |
| 20260905063018 | 77 | 115 | 0.0 | 0.0 | 0.00 | 0.01 | 0.00 | 75 | 1013.3 |
| 20260905061526 | 78 | 115 | 0.0 | 0.0 | 0.00 | 0.01 | 0.00 | 76 | 1013.5 |
| 20260905060028 | 79 | 115 | 0.0 | 0.0 | 0.00 | 0.01 | 0.00 | 76 | 1013.3 |
| 20260905054544 | 79 | 115 | 0.0 | 0.0 | 0.00 | 0.01 | 0.00 | 79 | 1013.5 |
| 20260905053014 | 80 | 115 | 0.0 | 0.0 | 0.00 | 0.01 | 0.00 | 78 | 1013.4 |
| 20260905051536 | 80 | 115 | 0.0 | 0.0 | 0.00 | 0.01 | 0.00 | 78 | 1013.5 |
| 20260905050035 | 80 | 115 | 0.0 | 0.0 | 0.00 | 0.01 | 0.00 | 77 | 1013.4 |
| 20260905044529 | 79 | 115 | 0.0 | 0.0 | 0.00 | 0.01 | 0.01 | 78 | 1013.5 |
| 20260905043033 | 80 | 115 | 0.0 | 0.0 | 0.00 | 0.01 | 0.01 | 78 | 1013.4 |
| 20260905041517 | 80 | 115 | 0.0 | 0.0 | 0.00 | 0.01 | 0.01 | 80 | 1013.6 |
| 20260905040023 | 81 | 115 | 0.0 | 0.0 | 0.00 | 0.01 | 0.01 | 81 | 1013.7 |
| 20260905034537 | 81 | 115 | 0.0 | 0.0 | 0.00 | 0.01 | 0.01 | 81 | 1013.9 |
| 20260905033039 | 82 | 115 | 0.0 | 0.0 | 0.00 | 0.01 | 0.01 | 81 | 1013.7 |
| 20260905031539 | 82 | 115 | 0.0 | 0.0 | 0.00 | 0.01 | 0.01 | 81 | 1013.9 |
| 20260905030018 | 82 | 115 | 0.0 | 0.0 | 0.00 | 0.01 | 0.01 | 81 | 1013.8 |
| 20260905024523 | 82 | 115 | 0.0 | 0.0 | 0.00 | 0.01 | 0.01 | 81 | 1013.7 |
| 20260905023033 | 82 | 115 | 0.0 | 0.0 | 0.00 | 0.01 | 0.01 | 81 | 1013.6 |
| 20260905021513 | 82 | 115 | 0.0 | 0.0 | 0.00 | 0.01 | 0.01 | 81 | 1013.5 |
| 20260905020021 | 83 | 115 | 0.0 | 0.0 | 0.00 | 0.01 | 0.01 | 80 | 1013.2 |
| 20260905014523 | 84 | 115 | 0.0 | 0.0 | 0.01 | 0.01 | 0.01 | 79 | 1013.2 |
| 20260905013029 | 84 | 117 | 0.0 | 0.0 | 0.01 | 0.01 | 0.01 | 78 | 1013.1 |
| 20260905011533 | 84 | 117 | 0.0 | 0.0 | 0.01 | 0.01 | 0.01 | 78 | 1012.9 |
| 20260905010011 | 85 | 117 | 0.0 | 0.0 | 0.01 | 0.01 | 0.01 | 77 | 1012.9 |
| 20260905004519 | 85 | 106 | 0.0 | 0.0 | 0.00 | 0.00 | 0.00 | 76 | 1012.7 |
| 20260905003026 | 86 | 110 | 0.0 | 0.0 | 0.00 | 0.00 | 0.00 | 76 | 1012.5 |
| 20260905001530 | 86 | 89 | 0.0 | 0.0 | 0.00 | 0.00 | 0.00 | 75 | 1012.6 |
| 20260905000030 | 87 | 113 | 0.0 | 0.0 | 0.00 | 0.00 | 0.00 | 74 | 1012.5 |
| 20260904234530 | 88 | 112 | 0.0 | 0.0 | 0.00 | 0.00 | 0.00 | 72 | 1012.3 |
| 20260904233018 | 89 | 110 | 0.0 | 0.0 | 0.00 | 0.00 | 0.00 | 70 | 1012.4 |
| 20260904231528 | 89 | 115 | 0.0 | 0.0 | 0.00 | 0.00 | 0.00 | 68 | 1012.3 |
| 20260904230030 | 90 | 72 | 0.0 | 0.0 | 0.00 | 0.00 | 0.00 | 65 | 1012.4 |
| 20260904224536 | 91 | 79 | 0.0 | 0.0 | 0.00 | 0.00 | 0.00 | 64 | 1012.3 |
| 20260904223015 | 91 | 47 | 0.0 | 0.0 | 0.00 | 0.00 | 0.00 | 63 | 1012.4 |
| 20260904221529 | 91 | 79 | 0.0 | 0.0 | 0.00 | 0.00 | 0.00 | 64 | 1012.3 |
| 20260904220026 | 92 | 89 | 0.0 | 0.0 | 0.00 | 0.00 | 0.00 | 62 | 1012.2 |
| 20260904214532 | 92 | 65 | 0.0 | 0.0 | 0.00 | 0.00 | 0.00 | 62 | 1012.4 |
| 20260904213033 | 93 | 82 | 0.0 | 0.0 | 0.00 | 0.00 | 0.00 | 62 | 1012.5 |
| 20260904211518 | 93 | 63 | 0.0 | 0.0 | 0.00 | 0.00 | 0.00 | 62 | 1012.7 |
| 20260904210026 | 92 | 68 | 0.0 | 0.0 | 0.00 | 0.00 | 0.00 | 59 | 1012.9 |
| 20260904204530 | 92 | 264 | 0.0 | 0.0 | 0.00 | 0.00 | 0.00 | 59 | 1013.1 |
| 20260904203038 | 93 | 70 | 0.0 | 0.0 | 0.00 | 0.00 | 0.00 | 56 | 1013.3 |
| 20260904201531 | 92 | 11 | 0.0 | 0.0 | 0.00 | 0.00 | 0.00 | 61 | 1013.5 |
| 20260904200018 | 90 | 30 | 0.0 | 0.0 | 0.00 | 0.00 | 0.00 | 65 | 1013.6 |
| 20260904194524 | 87 | 58 | 0.0 | 0.0 | 0.00 | 0.00 | 0.00 | 71 | 1013.7 |
| 20260904193031 | 87 | 62 | 0.0 | 0.0 | 0.00 | 0.00 | 0.00 | 65 | 1013.9 |
| 20260904191532 | 90 | 54 | 0.0 | 0.0 | 0.00 | 0.00 | 0.00 | 65 | 1014.1 |
| 20260904190033 | 94 | 24 | 0.0 | 0.0 | 0.00 | 0.00 | 0.00 | 61 | 1014.1 |
| 20260904184521 | 94 | 170 | 0.0 | 0.0 | 0.00 | 0.00 | 0.00 | 59 | 1014.3 |
| 20260904183025 | 92 | 227 | 0.0 | 0.0 | 0.00 | 0.00 | 0.00 | 66 | 1014.4 |
| 20260904181532 | 91 | 169 | 0.0 | 0.0 | 0.00 | 0.00 | 0.00 | 69 | 1014.8 |
| 20260904180034 | 90 | 222 | 0.0 | 0.0 | 0.00 | 0.00 | 0.00 | 71 | 1015.1 |
| 20260904174533 | 90 | 103 | 0.0 | 0.0 | 0.00 | 0.00 | 0.00 | 67 | 1015.2 |
| 20260904173032 | 89 | 185 | 0.0 | 0.0 | 0.00 | 0.00 | 0.00 | 73 | 1015.3 |
| 20260904171536 | 87 | 118 | 0.0 | 0.0 | 0.00 | 0.00 | 0.00 | 76 | 1015.3 |
| 20260904170032 | 85 | 118 | 0.0 | 0.0 | 0.00 | 0.00 | 0.00 | 80 | 1015.3 |
| 20260904164517 | 83 | 40 | 0.0 | 0.0 | 0.00 | 0.00 | 0.00 | 79 | 1015.6 |
| 20260904163026 | 83 | 53 | 0.0 | 0.0 | 0.00 | 0.00 | 0.00 | 79 | 1015.7 |
| 20260904161526 | 83 | 70 | 0.0 | 0.0 | 0.00 | 0.00 | 0.00 | 80 | 1015.5 |
| 20260904160046 | 83 | 68 | 0.0 | 0.0 | 0.00 | 0.00 | 0.00 | 81 | 1015.5 |
| 20260904154537 | 84 | 47 | 0.0 | 0.0 | 0.00 | 0.00 | 0.00 | 81 | 1015.4 |
| 20260904153021 | 83 | 68 | 0.0 | 0.0 | 0.00 | 0.00 | 0.00 | 81 | 1015.3 |
| 20260904151528 | 83 | 71 | 0.0 | 0.0 | 0.00 | 0.00 | 0.00 | 81 | 1014.9 |
| 20260904150041 | 83 | 290 | 0.0 | 0.0 | 0.00 | 0.00 | 0.00 | 80 | 1014.7 |
| 20260904144531 | 82 | 37 | 0.0 | 0.0 | 0.00 | 0.00 | 0.00 | 78 | 1014.7 |
| 20260904143035 | 0 | 0.0 | 0.0 | 0.00 | 0.00 | 0.00 | 1014.5 | ||
| 20260904141533 | 0 | 0.0 | 0.0 | 0.00 | 0.00 | 0.00 | 1014.5 | ||
| 20260904140048 | 0 | 0.0 | 0.0 | 0.00 | 0.01 | 0.00 | 1014.4 | ||
| 20260904134537 | 0 | 0.0 | 0.0 | 0.00 | 0.01 | 0.00 | 1014.4 | ||
| 20260904133033 | 0 | 0.0 | 0.0 | 0.00 | 0.01 | 0.00 | 1014.3 | ||
| 20260904131543 | 0 | 0.0 | 0.0 | 0.00 | 0.01 | 0.00 | 1014.2 | ||
| 20260904130048 | 0 | 0.0 | 0.0 | 0.00 | 0.01 | 0.00 | 1014.2 | ||
| 20260904124536 | 0 | 0.0 | 0.0 | 0.00 | 0.01 | 0.00 | 1014.1 | ||
| 20260904123034 | 0 | 0.0 | 0.0 | 0.00 | 0.01 | 0.00 | 1013.7 | ||
| 20260904121535 | 0 | 0.0 | 0.0 | 0.00 | 0.01 | 0.00 | 1013.5 | ||
| 20260904120036 | 0 | 0.0 | 0.0 | 0.00 | 0.01 | 0.00 | 1013.4 | ||
| 20260904114533 | 0 | 0.0 | 0.0 | 0.00 | 0.01 | 0.00 | 1013.4 | ||
| 20260904113036 | 0 | 0.0 | 0.0 | 0.00 | 0.01 | 0.00 | 1013.4 | ||
| 20260904111540 | 0 | 0.0 | 0.0 | 0.00 | 0.01 | 0.00 | 1013.5 | ||
| 20260904110039 | 0 | 0.0 | 0.0 | 0.00 | 0.01 | 0.00 | 1013.5 | ||
| 20260904104536 | 0 | 0.0 | 0.0 | 0.00 | 0.01 | 0.00 | 1013.4 | ||
| 20260904103036 | 0 | 0.0 | 0.0 | 0.00 | 0.01 | 0.00 | 1013.3 | ||
| 20260904101535 | 0 | 0.0 | 0.0 | 0.00 | 0.01 | 0.00 | 1013.2 | ||
| 20260904100033 | 0 | 0.0 | 0.0 | 0.00 | 0.01 | 0.00 | 1013.1 | ||
| 20260904094535 | 0 | 0.0 | 0.0 | 0.00 | 0.01 | 0.00 | 1013.0 | ||
| 20260904093037 | 0 | 0.0 | 0.0 | 0.00 | 0.01 | 0.00 | 1012.8 | ||
| 20260904091536 | 0 | 0.0 | 0.0 | 0.00 | 0.01 | 0.00 | 1012.8 | ||
| 20260904090039 | 0 | 0.0 | 0.0 | 0.00 | 0.01 | 0.00 | 1012.8 | ||
| 20260904084537 | 0 | 0.0 | 0.0 | 0.00 | 0.01 | 0.00 | 1012.8 | ||
| 20260904083037 | 0 | 0.0 | 0.0 | 0.00 | 0.01 | 0.00 | 1012.8 | ||
| 20260904081534 | 0 | 0.0 | 0.0 | 0.00 | 0.01 | 0.00 | 1012.8 | ||
| 20260904080035 | 0 | 0.0 | 0.0 | 0.00 | 0.01 | 0.00 | 1012.9 | ||
| 20260904074536 | 0 | 0.0 | 0.0 | 0.00 | 0.01 | 0.00 | 1013.0 | ||
| 20260904073037 | 0 | 0.0 | 0.0 | 0.00 | 0.01 | 0.00 | 1013.0 |